Location: North Runcton
(52.7000°N, 0.4333°E)
Time: 20:03:58
(UTC+00:00)

Cosmos 1697 Rocket - Pass Details

Date: 19 May 2025
Orbit: 830 x 844 km, 71.0° (Epoch: 21 June)

Event Time Altitude Azimuth Distance (km) Brightness Sun altitude
Rises 21:15:59 0° 327° (NNW) 3,407 8.2 -9.6°
Reaches altitude 10° 21:18:27 10° 324° (NW) 2,470 6.8 -9.8°
Maximum altitude 21:24:02 61° 245° (WSW) 955 3.1 -10.3°
Enters shadow 21:29:15 12° 167° (SSE) 2,338 4.4 -10.8°
